DateTimeUTC,F1_A11,F1_S11,BsB_S11,BsG_S11,BsR_S11,BbsB_S11,BbsG_S11,BbsR_S11,BaB_A11,BaG_A11,BaR_A11,Tu_S11,T_S11,Uu_S11,U_S11,P_S11,T1_A11
2021-08-19T16:00:00Z,00000200,20000000,,,,,,,-000.22,-000.19,-000.02,20.7,27.1,15.1,10.3,0675.6,31.1
2021-08-19T16:01:00Z,00000200,20000000,,,,,,,0000.29,0000.08,0000.05,20.7,27.1,15.1,10.3,0675.6,31.1
2021-08-19T16:02:00Z,00000200,20000000,,,,,,,-000.20,-000.12,-000.09,20.7,27.1,15.1,10.3,0675.6,31.2
2021-08-19T16:03:00Z,00000200,60000000,,,,,,,0000.32,0000.14,-000.02,20.7,27.1,15.1,10.3,0675.6,31.2
2021-08-19T16:04:00Z,00000200,40000000,0000.74,0000.60,0000.35,-000.16,0000.39,0000.23,-000.22,0000.00,0000.22,20.9,27.0,14.9,10.3,0676.5,31.2
2021-08-19T16:05:00Z,00000200,00000000,0000.90,0000.61,0000.27,0000.24,0000.10,0000.05,0000.31,0000.15,0000.05,20.9,27.0,14.8,10.3,0676.5,31.2
2021-08-19T16:06:00Z,00000200,00000000,0000.89,0000.87,0000.29,0000.86,0000.11,-000.20,0000.29,0000.31,0000.10,20.9,27.0,14.8,10.3,0676.5,31.2
2021-08-19T16:07:00Z,00000200,00000000,0000.45,0000.41,0000.20,0000.03,0000.28,0000.14,0000.09,0000.06,0000.21,20.9,27.0,14.8,10.3,0676.5,31.2
2021-08-19T16:08:00Z,00000200,00000000,0001.03,0000.70,0000.17,0000.62,0000.21,0000.14,-000.02,0000.28,-000.16,21.0,27.0,14.7,10.2,0676.5,31.2
2021-08-19T16:09:00Z,00000200,00000000,0000.39,0000.38,0000.37,-000.61,0000.35,-000.07,0000.11,-000.05,0000.22,20.9,27.0,14.7,10.2,0676.5,31.2
2021-08-19T16:10:00Z,00000200,00000000,0000.02,0000.64,0000.23,0000.15,0000.02,-000.40,0000.02,0000.18,0000.07,20.9,27.0,14.7,10.2,0676.5,31.2
2021-08-19T16:11:00Z,00000200,00000000,0000.25,0000.77,0000.21,-000.07,0000.69,0000.38,0000.36,-000.13,0000.23,20.9,27.0,14.7,10.3,0676.5,31.2
2021-08-19T16:12:00Z,00000200,00000000,0000.06,0000.35,0000.38,-000.01,-000.04,-000.06,0000.26,0000.44,0000.23,20.9,27.0,14.7,10.2,0676.5,31.1
2021-08-19T16:13:00Z,00000200,00000000,0000.75,0000.41,-000.06,0000.48,0000.06,-000.06,0000.15,0000.11,0000.27,20.9,27.0,14.7,10.2,0676.5,31.1
2021-08-19T16:14:00Z,00000200,00000000,0000.49,0000.68,-000.06,0000.12,0000.31,-000.31,0000.07,-000.09,-000.11,20.9,27.0,14.7,10.2,0676.5,31.2
2021-08-19T16:15:00Z,00000200,00000000,0000.32,0000.48,0000.09,0000.52,0000.14,-000.18,0000.11,0000.44,0000.15,21.0,27.0,14.6,10.2,0676.5,31.2
2021-08-19T16:16:00Z,00000200,00000000,0000.61,0000.20,0000.13,0000.39,0000.17,-000.12,-000.02,-000.15,-000.01,20.9,27.0,14.5,10.1,0676.5,31.2
2021-08-19T16:17:00Z,00000200,00000000,0000.48,0000.45,0000.52,0000.89,-000.00,0000.30,-000.01,0000.19,0000.12,20.9,27.0,14.6,10.1,0676.5,31.2
2021-08-19T16:18:00Z,00000200,00000000,0000.41,0000.61,0000.36,0000.30,-000.13,-000.30,0000.21,0000.07,0000.06,20.9,27.0,14.5,10.1,0676.5,31.2
2021-08-19T16:19:00Z,00000200,00000000,-000.00,0000.21,0000.29,-000.16,-000.03,-000.01,0000.39,-000.15,-000.22,20.9,27.0,14.5,10.1,0676.5,31.2
2021-08-19T16:20:00Z,00000200,00000000,0000.03,0000.72,0000.48,0000.29,0000.43,0000.46,-000.01,0000.51,0000.41,20.9,27.0,14.6,10.2,0676.5,31.2
2021-08-19T16:21:00Z,00000200,00000000,0001.16,0000.35,0000.30,0000.47,0000.42,0000.20,0000.17,0000.15,-000.08,20.9,27.0,14.5,10.1,0676.5,31.2
2021-08-19T16:22:00Z,00000200,00000000,0000.39,0000.82,0000.31,0000.95,0000.49,-000.16,0000.03,-000.34,0000.15,20.9,27.0,14.5,10.1,0676.5,31.2
2021-08-19T16:23:00Z,00000200,00000000,0001.65,0001.38,0000.82,-000.18,0000.17,0000.08,-000.30,0000.12,-000.19,20.9,27.0,14.2,09.9,0676.6,31.2
2021-08-19T16:24:00Z,00000200,00000000,0001.57,0001.19,0001.01,-000.14,0000.33,-000.21,0000.46,0000.22,0000.69,20.9,27.0,13.2,09.2,0676.6,31.2
2021-08-19T16:25:00Z,00000200,00000000,0001.37,0001.31,0000.80,0000.12,0000.42,0000.01,0000.76,0000.58,0000.04,20.9,27.0,13.6,09.5,0676.6,31.2
2021-08-19T16:26:00Z,00000200,00000000,0001.83,0001.81,0001.33,0000.64,0000.20,0000.48,-000.21,0000.15,0000.13,20.9,27.0,13.4,09.3,0676.6,31.2
2021-08-19T16:27:00Z,00000200,00000000,0003.23,0002.47,0001.70,0000.87,0000.73,0000.10,0000.98,0000.60,0000.68,20.9,27.0,13.0,09.0,0676.6,31.2
2021-08-19T16:28:00Z,00000200,00000000,0004.12,0002.52,0001.61,0000.75,0000.60,0000.25,0000.53,0000.71,0000.68,20.9,26.9,12.8,08.9,0676.6,31.2
2021-08-19T16:29:00Z,00000200,00000000,0002.93,0002.87,0001.58,0000.74,0000.79,0000.29,0000.77,0000.26,0000.17,20.9,26.9,12.4,08.6,0676.6,31.2
2021-08-19T16:30:00Z,00000200,00000000,0003.85,0002.86,0001.97,0000.84,0000.36,0000.29,0000.87,0001.06,0000.83,20.9,27.0,12.0,08.3,0676.6,31.2
2021-08-19T16:31:00Z,00000200,00000000,0003.56,0002.83,0002.07,0000.37,0000.21,0000.06,0001.37,0001.33,0000.78,20.9,27.0,12.2,08.5,0676.6,31.2
2021-08-19T16:32:00Z,00000200,00000000,0004.42,0003.41,0001.80,0000.63,0000.38,0000.10,0001.12,0000.58,0000.37,20.9,27.0,12.3,08.6,0676.6,31.2
2021-08-19T16:33:00Z,00000200,00000000,0004.04,0002.90,0001.63,0000.30,0000.64,0000.41,0000.49,0000.86,0000.87,20.9,27.0,12.0,08.4,0676.6,31.2
2021-08-19T16:34:00Z,00000200,00000000,0004.12,0003.36,0002.28,0001.00,0000.77,0000.33,0000.64,0000.35,0000.26,20.9,27.0,11.1,07.8,0676.6,31.2
2021-08-19T16:35:00Z,00000200,00000000,0004.07,0003.51,0002.46,0000.64,0000.23,0000.18,0000.96,0001.29,0000.86,20.9,27.0,10.8,07.6,0676.6,31.2
2021-08-19T16:36:00Z,00000200,00000000,0004.24,0003.62,0002.15,0000.69,0000.76,0000.20,0001.52,0001.27,0001.17,20.9,27.0,11.0,07.7,0676.6,31.2
2021-08-19T16:37:00Z,00000200,00000000,0004.51,0003.55,0002.28,0001.47,0000.68,0000.23,0001.49,0001.19,0000.88,20.9,27.0,11.1,07.7,0676.6,31.2
2021-08-19T16:38:00Z,00000200,00000000,0004.54,0003.88,0002.54,0001.44,0000.53,0000.27,0001.70,0001.63,0001.29,20.9,27.0,10.8,07.5,0676.6,31.2
2021-08-19T16:39:00Z,00000200,00010000,0004.38,0003.80,0002.27,0000.61,0000.48,0000.09,0001.09,0000.65,0000.85,20.9,27.0,11.0,07.6,0676.6,31.2
2021-08-19T16:40:00Z,00000200,00000000,0004.00,0004.31,0002.13,0000.42,0000.84,0000.33,0001.33,0001.38,0000.87,20.9,27.0,10.7,07.5,0676.6,31.2
2021-08-19T16:41:00Z,00000200,00000000,0004.23,0003.96,0002.79,0000.97,0000.51,0000.45,0001.03,0001.22,0000.84,20.9,27.0,10.8,07.5,0676.6,31.2
2021-08-19T16:42:00Z,00000200,00000000,0005.03,0004.10,0002.73,0001.48,0000.62,0000.22,0001.49,0001.45,0001.01,20.9,27.0,10.9,07.5,0676.6,31.2
2021-08-19T16:43:00Z,00000200,00000000,0004.99,0004.16,0003.06,0000.81,0000.46,0000.64,0001.33,0001.13,0000.96,20.9,27.0,11.0,07.6,0676.6,31.2
2021-08-19T16:44:00Z,00000200,00000000,0004.67,0004.48,0003.01,0000.96,0000.66,0000.26,0002.03,0001.88,0001.13,20.9,26.9,11.0,07.6,0676.6,31.2
2021-08-19T16:45:00Z,00000200,00000000,0005.52,0003.88,0002.99,0000.99,0000.43,-000.06,0001.41,0001.37,0001.39,20.9,27.0,11.4,07.9,0676.6,31.2
2021-08-19T16:46:00Z,00000200,00000000,0003.79,0003.90,0002.50,0001.10,0000.63,0000.30,0001.53,0001.36,0000.82,20.9,27.0,11.5,08.0,0676.6,31.2
2021-08-19T16:47:00Z,00000200,00000000,0004.77,0003.91,0002.43,0000.74,0000.54,0000.32,0001.33,0001.19,0001.01,20.9,26.9,11.8,08.1,0676.6,31.2
2021-08-19T16:48:00Z,00000200,00000000,0004.55,0003.56,0002.45,0001.11,0000.30,0000.66,0001.45,0001.25,0000.88,20.9,26.9,11.9,08.2,0676.6,31.2
2021-08-19T16:49:00Z,00000200,00000000,0003.91,0003.23,0002.28,0001.04,0000.84,0000.21,0000.94,0001.04,0000.94,20.9,26.9,12.0,08.3,0676.6,31.2
2021-08-19T16:50:00Z,00000200,00000000,0004.30,0003.30,0002.41,0000.61,0000.53,0000.28,0001.09,0001.11,0000.74,20.9,26.9,12.1,08.4,0676.6,31.2
2021-08-19T16:51:00Z,00000200,00000000,0003.80,0003.22,0002.25,0000.21,0000.42,0000.56,0001.26,0000.74,0001.07,20.9,27.0,12.1,08.4,0676.6,31.2
2021-08-19T16:52:00Z,00000200,00000000,0003.43,0002.63,0001.92,0000.83,0000.60,0000.08,0000.75,0000.79,0000.36,20.9,27.0,11.8,08.2,0676.5,31.1
2021-08-19T16:53:00Z,00000200,00000000,0003.93,0003.16,0001.79,0000.61,0001.00,-000.17,0000.98,0001.15,0000.64,20.9,27.0,11.6,08.0,0676.5,31.1
2021-08-19T16:54:00Z,00000200,00000000,0003.03,0002.96,0001.74,0001.11,0000.59,-000.03,0000.50,0000.42,0000.51,20.9,27.0,11.4,08.0,0676.5,31.2
2021-08-19T16:55:00Z,00000200,00000000,0004.20,0002.77,0001.92,0001.08,0000.23,0000.40,0001.23,0000.82,0000.88,20.9,27.0,11.3,07.9,0676.5,31.2
2021-08-19T16:56:00Z,00000200,00000000,0003.78,0002.82,0001.75,0000.80,0000.63,0000.64,0001.14,0001.12,0000.58,20.9,26.9,11.6,08.1,0676.6,31.2
2021-08-19T16:57:00Z,00000200,40000000,,,,,,,0000.50,0000.79,0000.48,21.0,27.0,11.3,07.9,0676.5,31.1
2021-08-19T16:58:00Z,00000200,60000000,,,,,,,-000.42,-000.40,-000.40,20.8,27.1,11.7,08.0,0675.6,31.2
2021-08-19T16:59:00Z,00000200,20000000,,,,,,,-000.16,-000.26,0000.04,20.7,27.2,11.7,07.9,0675.6,31.2
